Date Time,Air Temp,Sky Temp,Clarity,Light Level,Rain Sensor,Readings
2014-11-19 00:00:04,20.2,-12.0,32.2,0.0,2.3,112
2014-11-19 00:05:04,20.3,-11.8,32.0,0.0,2.3,111
2014-11-19 00:10:04,20.2,-11.9,32.1,0.0,2.4,111
2014-11-19 00:15:04,20.2,-11.7,32.0,0.0,2.5,111
2014-11-19 00:20:04,20.2,-11.8,32.0,0.0,2.5,112
2014-11-19 00:25:04,20.2,-12.0,32.2,0.0,2.5,111
2014-11-19 00:30:04,20.1,-12.0,32.1,0.0,2.6,111
2014-11-19 00:35:04,20.0,-11.8,31.8,0.0,2.6,110
2014-11-19 00:40:04,19.9,-12.0,31.9,0.0,2.6,112
2014-11-19 00:45:04,19.8,-12.0,31.9,0.0,2.5,111
2014-11-19 00:50:04,19.9,-10.0,29.9,0.0,2.6,112
2014-11-19 00:55:04,19.9,-9.4,29.3,0.0,2.6,112
2014-11-19 01:00:04,20.0,-10.8,30.8,0.0,2.7,111
2014-11-19 01:05:04,20.0,-11.4,31.4,0.0,2.7,111
2014-11-19 01:10:04,19.9,-12.1,32.1,0.0,2.7,112
2014-11-19 01:15:04,19.9,-12.3,32.3,0.0,2.7,111
2014-11-19 01:20:04,20.0,-11.6,31.6,0.0,2.7,111
2014-11-19 01:25:04,20.0,-12.1,32.2,0.0,2.6,111
2014-11-19 01:30:04,20.0,-12.0,32.0,0.0,2.6,112
2014-11-19 01:35:04,20.0,-12.3,32.3,0.0,2.6,111
2014-11-19 01:40:04,20.0,-12.0,32.0,0.0,2.5,111
2014-11-19 01:45:04,19.9,-12.1,32.0,0.0,2.4,111
2014-11-19 01:50:04,19.9,-11.9,31.8,0.0,2.4,112
2014-11-19 01:55:04,19.8,-11.2,31.1,0.0,2.3,111
2014-11-19 02:00:04,19.8,-10.8,30.7,0.0,2.3,111
2014-11-19 02:05:04,19.8,-11.8,31.6,0.0,2.3,111
2014-11-19 02:10:04,19.7,-11.4,31.1,0.0,2.3,111
2014-11-19 02:15:04,19.7,-11.7,31.4,0.0,2.3,111
2014-11-19 02:20:04,19.7,-11.6,31.3,0.0,2.3,111
2014-11-19 02:25:04,19.7,-11.0,30.7,0.0,2.3,112
2014-11-19 02:30:04,19.7,-10.8,30.5,0.0,2.3,111
2014-11-19 02:35:04,19.7,-10.6,30.3,0.0,2.3,112
2014-11-19 02:40:04,19.7,-9.9,29.6,0.0,2.3,111
2014-11-19 02:45:04,19.6,-9.6,29.3,0.0,2.3,112
2014-11-19 02:50:04,19.6,-9.9,29.5,0.0,2.3,112
2014-11-19 02:55:04,19.6,-9.6,29.2,0.0,2.3,112
2014-11-19 03:00:04,19.7,-5.7,25.4,0.0,2.3,112
2014-11-19 03:05:04,19.7,-1.0,20.7,0.0,2.3,111
2014-11-19 03:10:04,17.2,2.4,14.8,0.0,2.3,111
2014-11-19 03:15:04,16.1,3.0,13.1,0.0,2.3,112
2014-11-19 03:20:04,15.8,3.0,12.7,0.0,2.3,111
2014-11-19 03:25:04,15.7,2.9,12.8,0.0,2.3,111
2014-11-19 03:30:04,15.7,3.0,12.6,0.0,2.3,111
2014-11-19 03:35:04,15.7,3.3,12.5,0.0,2.3,112
2014-11-19 03:40:04,15.8,3.4,12.4,0.0,2.3,111
2014-11-19 03:45:04,15.7,2.6,13.2,0.0,2.3,111
2014-11-19 03:50:04,15.6,1.6,14.1,0.0,2.3,111
2014-11-19 03:55:04,15.6,1.9,13.6,0.0,2.3,111
2014-11-19 04:00:04,15.5,1.8,13.7,0.0,2.3,111
2014-11-19 04:05:04,15.6,1.1,14.4,0.0,2.3,111
2014-11-19 04:10:04,15.6,-0.2,15.8,0.0,2.3,112
2014-11-19 04:15:04,15.5,0.9,14.7,0.0,2.3,111
2014-11-19 04:20:04,15.5,3.0,12.5,0.0,2.3,112
2014-11-19 04:25:04,15.6,3.5,12.1,0.0,2.3,111
2014-11-19 04:30:04,15.6,3.5,12.1,0.0,2.3,111
2014-11-19 04:35:04,15.6,2.8,12.8,0.0,2.3,111
2014-11-19 04:40:04,15.6,3.0,12.6,0.0,2.3,111
2014-11-19 04:45:04,15.6,3.7,12.0,0.0,2.3,112
2014-11-19 04:50:04,15.7,4.1,11.7,0.0,2.3,111
2014-11-19 04:55:04,15.8,3.9,11.9,0.0,5.9,111
2014-11-19 05:00:04,15.8,3.6,12.1,0.0,3.3,112
2014-11-19 05:05:04,15.7,4.2,11.5,0.0,2.3,111
2014-11-19 05:10:04,15.6,4.0,11.6,0.0,2.3,112
2014-11-19 05:15:04,15.6,4.0,11.6,0.0,2.6,112
2014-11-19 05:20:04,15.7,3.6,12.1,0.0,7.1,111
2014-11-19 05:25:04,15.8,4.0,11.8,0.0,2.5,112
2014-11-19 05:30:04,15.9,3.7,12.2,0.0,2.8,111
2014-11-19 05:35:04,15.8,3.1,12.7,0.0,2.3,112
2014-11-19 05:40:04,15.8,1.6,14.2,0.1,2.3,111
2014-11-19 05:45:04,15.8,2.4,13.3,0.1,2.3,111
2014-11-19 05:50:04,15.8,2.3,13.5,0.1,2.3,111
2014-11-19 05:55:04,15.8,-0.4,16.2,0.1,2.3,112
2014-11-19 06:00:04,15.7,-1.0,16.7,0.1,2.3,111
2014-11-19 06:05:04,15.5,-2.4,17.9,0.1,2.3,74
2014-11-19 06:10:04,15.5,-0.5,16.0,0.1,2.3,112
2014-11-19 06:15:04,15.5,-3.1,18.6,0.1,2.3,112
2014-11-19 06:20:04,15.6,1.1,14.4,0.1,2.3,111
2014-11-19 06:25:04,15.7,2.8,12.9,0.2,2.3,111
2014-11-19 06:30:04,15.9,2.4,13.5,0.3,2.3,112
2014-11-19 06:35:04,15.9,3.3,12.7,0.5,2.3,111
2014-11-19 06:40:04,16.0,3.5,12.6,1.0,2.3,111
2014-11-19 06:45:04,16.1,4.0,12.1,1.8,2.3,112
2014-11-19 06:50:04,16.2,3.2,13.0,3.6,2.4,111
2014-11-19 06:55:04,16.3,3.5,12.7,6.3,2.4,111
2014-11-19 07:00:04,16.4,3.5,12.9,9.6,2.3,112
2014-11-19 07:05:04,16.4,4.1,12.3,13.2,2.3,112
2014-11-19 07:10:04,16.5,4.4,12.2,18.0,2.3,112
2014-11-19 07:15:04,16.6,4.4,12.2,22.3,2.3,111
2014-11-19 07:20:04,16.7,4.1,12.6,25.0,2.3,112
2014-11-19 07:25:04,16.7,3.7,13.0,26.0,2.3,111
2014-11-19 07:30:04,16.6,3.5,13.1,27.2,2.3,112
2014-11-19 07:35:04,16.5,3.4,13.1,28.2,2.3,111
2014-11-19 07:40:04,16.4,3.5,13.0,29.2,2.3,111
2014-11-19 07:45:04,16.1,2.5,13.6,30.4,2.3,111
2014-11-19 07:50:04,16.4,0.7,15.7,31.0,2.3,112
2014-11-19 07:55:04,16.9,-3.3,20.2,31.5,2.3,111
2014-11-19 08:00:04,19.6,-4.8,24.4,31.7,2.3,112
2014-11-19 08:05:04,20.5,-5.4,25.9,31.8,2.5,112
2014-11-19 08:10:04,20.8,-5.5,26.4,31.9,2.3,111
2014-11-19 08:15:04,21.0,-5.0,26.0,31.9,2.3,112
2014-11-19 08:20:04,21.1,-4.0,25.1,32.0,2.3,112
2014-11-19 08:25:04,21.2,-2.1,23.2,32.0,2.3,111
2014-11-19 08:30:04,21.2,0.6,20.5,31.9,2.3,111
2014-11-19 08:35:04,18.6,4.6,14.0,31.8,2.4,112
2014-11-19 08:40:04,17.5,3.5,13.9,32.0,2.3,111
2014-11-19 08:45:04,17.1,4.8,12.3,31.8,2.2,112
2014-11-19 08:50:04,17.1,5.2,11.9,31.7,2.1,111
2014-11-19 08:55:04,17.1,5.4,11.7,31.7,2.1,112
2014-11-19 09:00:04,17.1,4.4,12.7,32.0,2.1,112
2014-11-19 09:05:04,17.1,2.7,14.3,32.1,2.1,111
2014-11-19 09:10:04,17.1,2.6,14.5,32.2,2.1,111
2014-11-19 09:15:04,17.1,1.2,15.9,32.3,2.1,111
2014-11-19 09:20:04,17.3,1.1,16.2,32.3,2.2,111
2014-11-19 09:25:04,17.4,0.9,16.4,32.3,2.3,111
2014-11-19 09:30:04,17.4,0.9,16.5,32.3,2.3,111
2014-11-19 09:35:04,17.5,1.1,16.3,32.3,2.3,111
2014-11-19 09:40:04,17.6,0.5,17.1,32.3,2.3,111
2014-11-19 09:45:04,17.7,0.7,17.0,32.3,2.3,112
2014-11-19 09:50:04,17.8,3.1,14.8,32.3,2.3,111
2014-11-19 09:55:04,17.9,3.7,14.2,32.3,2.4,111
2014-11-19 10:00:04,18.0,2.3,15.7,32.3,2.5,112
2014-11-19 10:05:04,18.1,4.0,14.1,32.3,2.7,111
2014-11-19 10:10:04,18.3,2.7,15.6,32.4,2.6,111
2014-11-19 10:15:04,18.2,1.0,17.2,32.5,2.7,112
2014-11-19 10:20:04,18.3,1.9,16.4,32.5,2.6,111
2014-11-19 10:25:04,18.6,1.4,17.3,32.5,2.3,111
2014-11-19 10:30:04,18.8,1.0,17.8,32.5,2.3,111
2014-11-19 10:35:04,19.3,2.0,17.3,32.5,2.3,111
2014-11-19 10:40:04,19.6,2.6,17.0,32.5,2.2,111
2014-11-19 10:45:04,19.9,2.8,17.1,32.5,1.8,111
2014-11-19 10:50:04,20.5,3.9,16.6,32.6,2.1,112
2014-11-19 10:55:04,23.1,1.0,22.1,32.5,2.4,111
2014-11-19 11:00:04,25.8,0.4,25.3,32.5,2.3,111
2014-11-19 11:05:04,26.0,0.3,25.7,32.5,2.3,112
2014-11-19 11:10:04,25.9,1.0,24.8,32.5,2.3,111
2014-11-19 11:15:04,25.8,1.9,23.9,32.5,2.3,112
2014-11-19 11:20:04,25.9,1.5,24.4,32.5,2.3,111
2014-11-19 11:25:04,26.1,2.8,23.3,32.6,2.3,111
2014-11-19 11:30:04,26.5,2.4,24.1,32.5,2.3,111
2014-11-19 11:35:04,26.2,3.6,22.6,32.5,2.3,112
2014-11-19 11:40:04,25.5,4.5,21.0,32.5,2.3,111
2014-11-19 11:45:04,25.1,3.9,21.2,32.5,2.3,112
2014-11-19 11:50:04,25.3,1.9,23.3,32.5,2.3,111
2014-11-19 11:55:04,25.3,1.4,24.0,32.5,2.3,111
2014-11-19 12:00:04,25.1,1.8,23.4,32.5,2.3,111
2014-11-19 12:05:04,24.0,2.3,21.7,32.5,2.3,112
2014-11-19 12:10:04,24.1,1.6,22.5,32.4,2.3,111
2014-11-19 12:15:04,24.4,-1.7,26.1,32.5,2.3,111
2014-11-19 12:20:04,24.7,-4.8,29.5,32.5,2.4,112
2014-11-19 12:25:04,24.8,-5.1,29.8,32.5,2.4,112
2014-11-19 12:30:04,24.6,-5.1,29.7,32.5,2.4,111
2014-11-19 12:35:04,24.5,0.9,23.6,32.4,2.3,112
2014-11-19 12:40:04,22.4,2.2,20.2,32.4,2.3,111
2014-11-19 12:45:04,21.7,4.4,17.3,32.4,2.4,112
2014-11-19 12:50:04,21.5,-1.4,22.9,32.5,2.5,111
2014-11-19 12:55:04,23.6,-1.5,25.1,32.5,2.3,112
2014-11-19 13:00:04,24.2,-0.2,24.5,32.5,2.3,111
2014-11-19 13:05:04,23.6,4.5,19.1,32.5,2.3,112
2014-11-19 13:10:04,21.2,2.9,18.3,32.4,2.4,111
2014-11-19 13:15:04,21.7,0.1,21.6,32.4,2.4,111
2014-11-19 13:20:04,22.4,3.4,19.0,32.5,2.4,112
2014-11-19 13:25:04,20.4,3.2,17.2,32.5,2.4,112
2014-11-19 13:30:04,22.5,0.9,21.5,32.4,2.4,111
2014-11-19 13:35:04,22.7,0.4,22.3,32.5,2.3,112
2014-11-19 13:40:04,23.5,1.2,22.2,32.5,2.3,111
2014-11-19 13:45:04,22.3,0.5,21.8,32.5,2.3,111
2014-11-19 13:50:04,23.5,3.1,20.4,32.5,2.3,112
2014-11-19 13:55:04,21.9,4.9,17.0,32.5,2.3,111
2014-11-19 14:00:04,21.5,2.6,18.9,32.5,2.3,112
2014-11-19 14:05:04,22.3,5.0,17.3,32.5,2.3,111
2014-11-19 14:10:04,21.1,6.6,14.5,32.5,2.3,111
2014-11-19 14:15:04,21.9,-0.3,22.2,32.5,2.3,112
2014-11-19 14:20:04,24.0,4.6,19.4,32.6,2.3,112
2014-11-19 14:25:04,23.1,5.6,17.6,32.6,2.4,111
2014-11-19 14:30:04,25.3,0.6,24.7,32.6,2.3,111
2014-11-19 14:35:04,27.5,-1.8,29.3,32.5,2.3,112
2014-11-19 14:40:04,26.8,-6.9,33.7,32.3,2.3,111
2014-11-19 14:45:04,25.5,-4.0,29.5,32.3,2.3,112
2014-11-19 14:50:04,24.6,0.3,24.3,32.2,2.4,111
2014-11-19 14:55:04,23.5,4.3,19.2,32.3,2.3,111
2014-11-19 15:00:04,20.7,3.4,17.3,32.4,2.5,112
2014-11-19 15:05:04,20.6,0.5,20.1,32.3,2.5,111
2014-11-19 15:10:04,22.9,-1.4,24.3,32.2,2.3,112
2014-11-19 15:15:04,23.3,-0.7,24.0,32.0,2.3,111
2014-11-19 15:20:04,23.3,-1.2,24.5,32.0,2.3,112
2014-11-19 15:25:04,23.1,-5.4,28.6,32.1,2.3,112
2014-11-19 15:30:04,23.0,-5.5,28.5,32.0,2.3,111
2014-11-19 15:35:04,22.8,-3.5,26.3,32.0,2.4,112
2014-11-19 15:40:04,22.7,-5.7,28.4,32.0,2.7,111
2014-11-19 15:45:04,22.5,-8.5,31.0,31.9,2.6,112
2014-11-19 15:50:04,22.4,-9.5,31.9,31.8,2.4,112
2014-11-19 15:55:04,22.3,-9.3,31.6,31.7,2.3,112
2014-11-19 16:00:04,22.1,-9.7,31.8,31.5,2.3,111
2014-11-19 16:05:04,22.0,-9.7,31.7,31.2,2.3,112
2014-11-19 16:10:04,21.9,-9.4,31.2,30.8,2.3,111
2014-11-19 16:15:04,21.8,-9.1,30.8,30.2,2.1,112
2014-11-19 16:20:04,21.7,-9.0,30.7,29.5,2.0,112
2014-11-19 16:25:04,21.6,-9.6,31.2,28.4,2.0,112
2014-11-19 16:30:04,21.6,-9.7,31.2,26.5,1.9,111
2014-11-19 16:35:04,21.5,-9.0,30.4,22.5,1.9,112
2014-11-19 16:40:04,21.5,-8.0,29.5,16.9,2.0,112
2014-11-19 16:45:04,21.4,-7.6,29.0,11.0,1.9,111
2014-11-19 16:50:04,21.0,-6.9,27.9,6.3,2.0,112
2014-11-19 16:55:04,21.4,-5.0,26.4,3.5,2.1,111
2014-11-19 17:00:04,21.4,-3.0,24.4,1.8,2.1,112
2014-11-19 17:05:04,21.5,-1.1,22.7,1.0,2.0,111
2014-11-19 17:10:04,21.7,0.1,21.6,0.5,1.9,112
2014-11-19 17:15:04,20.6,1.6,19.0,0.3,2.1,111
2014-11-19 17:20:04,18.1,2.1,15.9,0.2,2.4,111
2014-11-19 17:25:04,17.2,1.9,15.3,0.2,2.4,111
2014-11-19 17:30:04,17.0,1.9,15.1,0.1,2.3,111
2014-11-19 17:35:04,16.9,2.7,14.2,0.1,2.3,112
2014-11-19 17:40:04,16.9,3.0,13.9,0.1,2.2,111
2014-11-19 17:45:04,16.9,2.6,14.4,0.1,2.2,111
2014-11-19 17:50:04,16.9,2.5,14.5,0.1,2.2,111
2014-11-19 17:55:04,16.9,1.7,15.2,0.1,2.1,111
2014-11-19 18:00:04,16.9,1.0,15.9,0.1,2.0,111
2014-11-19 18:05:04,16.9,0.4,16.5,0.1,2.1,111
2014-11-19 18:10:04,16.8,1.7,15.1,0.1,2.3,111
2014-11-19 18:15:04,16.8,1.4,15.4,0.1,2.2,112
2014-11-19 18:20:04,16.8,0.5,16.4,0.1,2.2,111
2014-11-19 18:25:04,16.8,-0.1,16.9,0.1,2.3,112
2014-11-19 18:30:04,16.7,-1.2,17.9,0.1,2.3,111
2014-11-19 18:35:04,16.6,-0.3,16.9,0.1,2.4,112
2014-11-19 18:40:04,16.6,-0.1,16.7,0.1,2.4,112
2014-11-19 18:45:04,16.3,0.4,15.9,0.1,2.4,111
2014-11-19 18:50:04,16.6,1.3,15.3,0.1,2.4,111
2014-11-19 18:55:04,16.6,1.6,15.0,0.1,2.4,111
2014-11-19 19:00:04,16.6,-0.0,16.6,0.0,2.3,112
2014-11-19 19:05:04,16.6,-1.9,18.5,0.0,2.3,112
2014-11-19 19:10:04,17.5,-2.9,20.4,0.0,2.2,112
2014-11-19 19:15:04,19.4,-3.9,23.3,0.0,2.4,112
2014-11-19 19:20:04,20.1,-3.6,23.7,0.0,2.3,112
2014-11-19 19:25:04,20.4,-4.0,24.4,0.0,2.3,111
2014-11-19 19:30:05,20.8,-3.6,24.5,0.0,2.3,112
2014-11-19 19:35:05,21.0,-1.1,22.1,0.0,2.3,112
2014-11-19 19:40:05,20.9,0.0,20.9,0.0,2.3,111
2014-11-19 19:45:05,18.5,3.7,14.8,0.0,2.4,111
2014-11-19 19:50:05,17.2,2.8,14.4,0.0,2.4,112
2014-11-19 19:55:05,16.9,3.3,13.7,0.0,2.3,111
2014-11-19 20:00:05,16.8,3.1,13.7,0.0,2.1,111
2014-11-19 20:05:05,16.7,-0.8,17.5,0.0,2.0,112
2014-11-19 20:10:05,18.0,-3.8,21.8,0.0,2.3,111
2014-11-19 20:15:05,19.9,-0.6,20.5,0.0,2.4,112
2014-11-19 20:20:05,18.4,-0.5,18.9,0.0,2.5,111
2014-11-19 20:25:05,17.1,2.3,14.9,0.0,2.3,111
2014-11-19 20:30:05,16.8,3.6,13.3,0.0,2.1,112
2014-11-19 20:35:05,16.7,3.2,13.5,0.0,2.1,111
2014-11-19 20:40:05,16.5,3.6,12.9,0.0,2.3,111
2014-11-19 20:45:05,16.5,4.5,12.0,0.0,2.3,112
2014-11-19 20:50:05,16.6,3.1,13.4,0.0,2.3,111
2014-11-19 20:55:05,16.5,3.4,13.1,0.1,2.3,111
2014-11-19 21:00:05,16.2,3.3,13.0,0.1,2.3,112
2014-11-19 21:05:05,16.6,3.4,13.1,0.1,2.2,112
2014-11-19 21:10:05,16.5,3.9,12.6,0.1,2.2,111
2014-11-19 21:15:05,16.6,1.9,14.6,0.0,2.2,111
2014-11-19 21:20:05,16.6,0.7,15.9,0.0,2.2,111
2014-11-19 21:25:05,16.5,-1.0,17.5,0.0,2.3,112
2014-11-19 21:30:05,16.5,-2.0,18.6,0.0,2.4,112
2014-11-19 21:35:05,18.8,-1.2,20.0,0.0,2.4,112
2014-11-19 21:40:05,17.5,3.7,13.8,0.0,2.3,111
2014-11-19 21:45:05,16.9,3.3,13.6,0.0,2.1,111
2014-11-19 21:50:05,16.7,5.0,11.7,0.0,2.2,112
2014-11-19 21:55:05,16.7,5.2,11.5,0.0,2.2,112
2014-11-19 22:00:05,16.8,4.0,12.8,0.0,2.1,111
2014-11-19 22:05:05,16.8,3.7,13.1,0.0,2.1,111
2014-11-19 22:10:05,16.7,3.1,13.6,0.0,2.2,111
2014-11-19 22:15:05,16.7,5.5,11.1,0.0,2.2,112
2014-11-19 22:20:05,16.7,5.9,10.8,0.0,2.3,111
2014-11-19 22:25:05,16.8,6.2,10.5,0.0,2.2,112
2014-11-19 22:30:05,16.8,6.6,10.2,0.0,2.2,111
2014-11-19 22:35:05,16.8,6.6,10.2,0.0,2.2,111
2014-11-19 22:40:05,16.9,6.6,10.3,0.0,2.2,112
2014-11-19 22:45:05,16.9,6.3,10.6,0.0,2.1,111
2014-11-19 22:50:05,16.9,6.5,10.4,0.0,2.2,112
2014-11-19 22:55:05,16.9,6.8,10.1,0.0,2.1,111
2014-11-19 23:00:05,16.9,6.7,10.2,0.0,2.1,111
2014-11-19 23:05:05,16.9,6.9,10.1,0.0,2.0,112
2014-11-19 23:10:05,17.0,6.9,10.1,0.0,2.0,111
2014-11-19 23:15:05,17.0,6.5,10.5,0.0,2.1,112
2014-11-19 23:20:05,16.7,6.3,10.4,0.0,2.2,111
2014-11-19 23:25:05,17.0,5.6,11.4,0.0,2.1,112
2014-11-19 23:30:05,17.0,6.4,10.6,0.0,2.1,111
2014-11-19 23:35:05,17.0,5.5,11.5,0.0,2.1,111
2014-11-19 23:40:05,17.0,4.7,12.2,0.0,2.0,112
2014-11-19 23:45:05,16.9,5.8,11.2,0.0,2.4,112
2014-11-19 23:50:05,16.9,5.7,11.2,0.0,2.6,112
2014-11-19 23:55:05,16.9,4.7,12.2,0.1,2.3,111
